CW3065 Weather Reports


Display with metric or nautical units.
time (UTC)temp
F
wind
direction
speed
MPH
gust
MPH
rain 1hr
in
rain 24hr
in
rain mn
in
humidity
%
barometer
mb
20260503220004 62 242 8.0 12.0 0.00 0.00 0.00 17 1004.2
20260503215504 62 261 3.0 6.0 0.00 0.00 0.00 17 1004.2
20260503215003 62 284 2.0 7.0 0.00 0.00 0.00 17 1004.2
20260503214504 62 335 9.0 14.0 0.00 0.00 0.00 18 1004.3
20260503214004 62 275 6.0 12.0 0.00 0.00 0.00 19 1004.3
20260503212504 64 294 5.0 22.0 0.00 0.00 0.00 16 1004.6
20260503212004 64 310 7.0 20.0 0.00 0.00 0.00 17 1004.5
20260503211504 64 321 9.0 18.0 0.00 0.00 0.00 17 1004.7
20260503211003 64 300 7.0 18.0 0.00 0.00 0.00 16 1004.7
20260503210504 65 289 4.0 15.0 0.00 0.00 0.00 16 1004.6
20260503210005 66 258 5.0 15.0 0.00 0.00 0.00 16 1004.8
20260503205503 65 331 13.0 22.0 0.00 0.00 0.00 18 1004.8
20260503204504 62 236 10.0 18.0 0.00 0.00 0.00 16 1005.0
20260503203503 64 259 12.0 24.0 0.00 0.00 0.00 16 1005.0
20260503203004 64 245 10.0 17.0 0.00 0.00 0.00 15 1005.2
20260503202504 64 240 10.0 16.0 0.00 0.00 0.00 16 1005.6
20260503202004 65 244 12.0 26.0 0.00 0.00 0.00 14 1005.5
20260503201503 65 248 7.0 23.0 0.00 0.00 0.00 14 1005.4
20260503201004 64 344 7.0 20.0 0.00 0.00 0.00 15 1005.7
20260503200504 64 271 13.0 26.0 0.00 0.00 0.00 15 1005.7
20260503200004 64 271 10.0 23.0 0.00 0.00 0.00 15 1005.8
20260503195004 63 263 10.0 20.0 0.00 0.00 0.00 16 1005.8
20260503194504 64 273 11.0 22.0 0.00 0.00 0.00 16 1006.1
20260503194004 64 275 14.0 26.0 0.00 0.00 0.00 15 1006.2
20260503193504 64 270 12.0 21.0 0.00 0.00 0.00 15 1006.1
20260503193004 64 278 13.0 24.0 0.00 0.00 0.00 15 1006.2
20260503192003 63 296 14.0 21.0 0.00 0.00 0.00 16 1006.2
20260503191504 62 273 12.0 16.0 0.00 0.00 0.00 18 1006.3
20260503191004 62 232 17.0 28.0 0.00 0.00 0.00 16 1006.2
20260503190504 63 244 8.0 17.0 0.00 0.00 0.00 17 1006.3
20260503190004 62 300 8.0 17.0 0.00 0.00 0.00 18 1006.3
20260503185504 61 293 12.0 20.0 0.00 0.00 0.00 17 1006.5
20260503185004 61 277 15.0 24.0 0.00 0.00 0.00 17 1006.8
20260503184004 61 265 11.0 23.0 0.00 0.00 0.00 18 1006.8
20260503183503 60 267 11.0 17.0 0.00 0.00 0.00 18 1007.0
20260503183004 60 252 9.0 23.0 0.00 0.00 0.00 17 1007.1
20260503182504 59 282 13.0 24.0 0.00 0.00 0.00 18 1007.5
20260503181504 59 260 13.0 23.0 0.00 0.00 0.00 19 1007.5
20260503181004 58 253 9.0 14.0 0.00 0.00 0.00 19 1007.5
20260503180004 57 269 7.0 16.0 0.00 0.00 0.00 19 1007.6
20260503175504 57 262 8.0 15.0 0.00 0.00 0.00 20 1007.7
20260503175004 57 265 6.0 14.0 0.00 0.00 0.00 21 1007.7
20260503174503 57 254 8.0 15.0 0.00 0.00 0.00 21 1007.7
20260503174004 57 311 3.0 10.0 0.00 0.00 0.00 23 1007.9
20260503173503 56 253 5.0 10.0 0.00 0.00 0.00 24 1008.0
20260503173003 56 238 5.0 12.0 0.00 0.00 0.00 24 1008.1
20260503151004 56 236 6.0 14.0 0.00 0.00 0.00 22 1008.8
20260503150504 56 256 5.0 13.0 0.00 0.00 0.00 21 1008.9
20260503130503 33 348 1.0 2.0 0.00 0.00 0.00 69 1010.5
20260503110504 29 348 0.0 0.0 0.00 0.00 0.00 69 1010.0
20260503090504 31 348 0.0 1.0 0.00 0.00 0.00 63 1011.0
20260503081504 33 348 0.0 2.0 0.00 0.00 0.00 60 1011.2
20260503081004 33 348 1.0 3.0 0.00 0.00 0.00 60 1011.2
20260503072003 35 348 1.0 2.0 0.00 0.00 0.00 58 1011.9
20260503071503 35 348 2.0 3.0 0.00 0.00 0.00 58 1011.9
20260503071004 35 348 3.0 3.0 0.00 0.00 0.00 57 1012.0
20260503070504 36 49 0.0 1.0 0.00 0.00 0.00 57 1012.0
20260503055004 37 280 0.0 0.0 0.00 0.00 0.00 52 1012.7
20260503054503 37 280 0.0 3.0 0.00 0.00 0.00 53 1012.6
20260503054004 37 280 1.0 3.0 0.00 0.00 0.00 52 1012.7
20260503053504 37 280 3.0 3.0 0.00 0.00 0.00 51 1012.6
20260503053004 37 280 2.0 3.0 0.00 0.00 0.00 52 1012.5
20260503052504 37 280 2.0 3.0 0.00 0.00 0.00 51 1012.4
20260503052004 37 280 1.0 2.0 0.00 0.00 0.00 51 1012.3
20260503051503 37 280 1.0 3.0 0.00 0.00 0.00 50 1012.2
20260503051004 37 280 1.0 3.0 0.00 0.00 0.00 51 1012.2
20260503050504 38 280 1.0 3.0 0.00 0.00 0.00 51 1012.1
20260503050005 38 280 3.0 3.0 0.00 0.00 0.00 50 1012.1
20260503045504 39 280 0.0 2.0 0.00 0.00 0.00 50 1012.3
20260503045004 39 280 2.0 3.0 0.00 0.00 0.00 48 1012.8
20260503044504 39 280 2.0 3.0 0.00 0.00 0.00 48 1012.9
20260503044003 40 280 0.0 2.0 0.00 0.00 0.00 46 1012.9
20260503043503 40 280 2.0 3.0 0.00 0.00 0.00 46 1012.9
20260503043003 41 280 1.0 2.0 0.00 0.00 0.00 46 1012.8
20260503042503 41 280 1.0 3.0 0.00 0.00 0.00 46 1012.6
20260503042003 42 280 1.0 3.0 0.00 0.00 0.00 44 1012.4
20260503041503 42 280 1.0 3.0 0.00 0.00 0.00 44 1012.3
20260503041004 42 280 2.0 3.0 0.00 0.00 0.00 43 1012.4
20260503040504 42 280 1.0 3.0 0.00 0.00 0.00 43 1012.4
20260503040004 43 280 2.0 3.0 0.00 0.00 0.00 42 1012.4
20260503035503 43 280 3.0 5.0 0.00 0.00 0.00 41 1012.5
20260503035004 43 280 3.0 3.0 0.00 0.00 0.00 41 1012.8
20260503034503 44 280 0.0 3.0 0.00 0.00 0.00 40 1012.9
20260503034004 44 280 3.0 3.0 0.00 0.00 0.00 39 1012.8
20260503033504 44 280 3.0 3.0 0.00 0.00 0.00 38 1012.8
20260503032504 45 280 1.0 2.0 0.00 0.00 0.00 37 1012.8
20260503031504 47 280 0.0 2.0 0.00 0.00 0.00 36 1012.5
20260503031004 47 280 2.0 3.0 0.00 0.00 0.00 35 1012.4
20260503030504 48 280 2.0 3.0 0.00 0.00 0.00 34 1012.3
20260503030004 49 280 2.0 3.0 0.00 0.00 0.00 31 1012.1
20260503025504 49 280 2.0 3.0 0.00 0.00 0.00 31 1012.2
20260503025004 49 278 3.0 6.0 0.00 0.00 0.00 31 1012.5
20260503024003 49 291 2.0 3.0 0.00 0.00 0.00 32 1012.3
20260503023504 50 291 0.0 3.0 0.00 0.00 0.00 31 1012.3
20260503023003 50 285 2.0 5.0 0.00 0.00 0.00 32 1012.3
20260503022503 50 273 3.0 6.0 0.00 0.00 0.00 32 1012.2
20260503022004 51 283 3.0 5.0 0.00 0.00 0.00 32 1012.2
20260503021504 51 245 2.0 3.0 0.00 0.00 0.00 32 1012.1
20260503021003 52 119 3.0 5.0 0.00 0.00 0.00 32 1011.9
20260503020503 52 119 2.0 3.0 0.00 0.00 0.00 31 1011.8
20260503020004 52 119 2.0 3.0 0.00 0.00 0.00 30 1011.7
20260503015504 53 119 1.0 3.0 0.00 0.00 0.00 31 1011.6
20260503015004 53 119 3.0 3.0 0.00 0.00 0.00 29 1011.6
20260503014504 53 183 2.0 6.0 0.00 0.00 0.00 29 1011.6
20260503014004 54 206 6.0 13.0 0.00 0.00 0.00 28 1011.8
20260503013004 54 178 11.0 13.0 0.00 0.00 0.00 27 1012.0
20260503012503 54 176 3.0 5.0 0.00 0.00 0.00 28 1012.0
20260503012004 54 259 3.0 8.0 0.00 0.00 0.00 27 1012.1
20260503011504 54 269 5.0 13.0 0.00 0.00 0.00 26 1012.2
20260503011004 54 262 5.0 10.0 0.00 0.00 0.00 26 1012.2
20260503010504 55 251 5.0 8.0 0.00 0.00 0.00 26 1012.3
20260503010004 55 215 5.0 7.0 0.00 0.00 0.00 21 1012.4
20260503005004 55 154 3.0 6.0 0.00 0.00 0.00 21 1012.1
20260503004004 55 113 5.0 9.0 0.00 0.00 0.00 19 1011.8
20260503003504 55 102 5.0 7.0 0.00 0.00 0.00 20 1011.9
20260503003004 55 130 5.0 12.0 0.00 0.00 0.00 19 1011.9
20260503002504 56 126 7.0 12.0 0.00 0.00 0.00 19 1011.9
20260503002003 56 119 7.0 12.0 0.00 0.00 0.00 19 1011.9
20260503001504 57 117 5.0 10.0 0.00 0.00 0.00 19 1011.9
20260503001004 57 126 7.0 12.0 0.00 0.00 0.00 20 1011.9
20260503000504 57 112 7.0 12.0 0.00 0.00 0.00 19 1011.9
20260503000003 57 69 5.0 10.0 0.00 0.00 0.00 19 1011.9
20260502235504 57 103 6.0 14.0 0.00 0.00 0.00 19 1011.9
20260502235003 57 112 7.0 14.0 0.00 0.00 0.00 19 1011.8
20260502234504 57 109 9.0 12.0 0.00 0.00 0.00 19 1011.8
20260502234003 57 78 4.0 10.0 0.00 0.00 0.00 19 1011.8
20260502233503 57 56 6.0 14.0 0.00 0.00 0.00 20 1011.8
20260502233003 58 55 9.0 14.0 0.00 0.00 0.00 18 1011.8
20260502231504 58 78 7.0 13.0 0.00 0.00 0.00 19 1011.7
20260502230504 58 52 7.0 12.0 0.00 0.00 0.00 20 1011.7
20260502230004 58 75 7.0 12.0 0.00 0.00 0.00 19 1011.7
20260502225503 59 72 10.0 15.0 0.00 0.00 0.00 18 1011.8
20260502225004 60 93 7.0 14.0 0.00 0.00 0.00 19 1011.7
20260502224504 60 71 8.0 15.0 0.00 0.00 0.00 18 1011.8
20260502224003 60 73 13.0 18.0 0.00 0.00 0.00 19 1011.9
20260502223503 59 57 10.0 15.0 0.00 0.00 0.00 20 1012.3
20260502223004 58 33 7.0 16.0 0.00 0.00 0.00 21 1012.3
20260502222503 58 74 8.0 14.0 0.00 0.00 0.00 20 1012.3
20260502222003 58 108 5.0 8.0 0.00 0.00 0.00 20 1012.4
20260502221003 59 31 5.0 9.0 0.00 0.00 0.00 20 1012.3
20260502220504 59 104 5.0 10.0 0.00 0.00 0.00 20 1012.1